#timestamp,LO_Frequency,Hit,StdDev 
1593111615.3,286046995.3,P
1593111635.1,286046995.8,N
1593111655.9,286046993.7,N
1593111675.7,286046990.8,N
1593111695.6,286046982.6,N
1593111715.4,286046978.7,N
1593111735.2,286046971.0,N
1593111755.1,286046969.5,N
1593111756.0,286046969.5,N
1593111775.8,286046967.9,N
1593111795.6,286046966.6,N
1593111815.5,286046964.1,N
1593111835.3,286046959.3,N
1593111855.2,286046954.3,N
1593111875.9,286046950.6,N
1593111895.7,286046951.2,N
1593111915.6,286046947.2,N
1593111935.4,286046948.0,N
1593111955.2,286046944.8,N
1593111975.1,286046946.4,N
1593111976.0,286046946.4,N
1593111995.8,286046944.2,N
1593112015.7,286046940.8,N
1593112035.5,286046938.4,Y
1593112055.3,286046970.3,P
1593112075.2,286046968.8,P
1593112095.0,286046966.8,P
1593112095.9,286046966.8,Y
1593112115.7,286046997.8,P
1593112135.6,286046999.9,N
1593112155.4,286047006.8,N
1593112175.3,286047009.5,N
1593112195.1,286047016.0,N
1593112196.0,286047016.0,N
1593112215.8,286047023.2,N
1593112235.7,286047030.1,N
1593112255.5,286047035.9,N
1593112275.3,286047040.7,N
1593112295.2,286047040.8,N
1593112315.0,286047035.0,N
1593112315.9,286047035.0,N
1593112335.8,286047034.6,N
1593112355.6,286047029.3,N
1593112375.4,286047026.4,N
1593112395.3,286047020.6,N
1593112415.1,286047018.2,N
1593112435.8,286047016.0,N
1593112455.7,286047013.4,N
1593112475.5,286047010.2,N
1593112495.4,286047012.3,N
1593112515.2,286047012.5,N
1593112535.0,286047012.9,N
1593112535.9,286047012.9,N
1593112555.8,286047011.7,N
1593112575.6,286047007.7,N
1593112595.4,286047011.8,N
1593112615.3,286047014.3,N
1593112635.1,286047016.3,N
1593112655.9,286047018.2,N
1593112675.7,286047016.3,N
1593112695.5,286047018.8,N
1593112715.4,286047016.5,N
1593112735.2,286047012.5,N
1593112755.0,286047009.5,N
1593112756.0,286047009.5,N
1593112775.8,286047008.8,N
1593112795.6,286047006.1,N
1593112815.5,286047007.4,N
1593112835.3,286047006.7,N
1593112855.1,286047009.0,N
1593112875.9,286047008.7,N
1593112895.7,286047007.6,N
1593112915.5,286047006.7,N
1593112935.4,286047008.1,N
1593112955.2,286047009.0,N
1593112975.1,286047009.0,N
1593112976.0,286047009.0,N
1593112995.8,286047007.0,N
1593113015.6,286047007.2,N
1593113035.5,286047001.7,N
1593113055.3,286047002.3,N
1593113075.2,286046999.1,N
1593113095.9,286046998.8,N
1593113115.7,286046997.3,N
1593113135.6,286046997.9,N
1593113155.4,286046993.9,N
1593113175.2,286046995.1,N
1593113195.1,286046994.9,N
1593113196.0,286046994.9,N
1593113215.8,286046993.4,N
1593113235.7,286046996.2,N
1593113255.5,286046995.1,N
1593113275.3,286046997.8,N
1593113295.2,286046998.3,N
1593113315.0,286047001.2,N
1593113315.9,286047001.2,N
1593113335.7,286047002.4,N
1593113355.6,286047001.1,N
1593113375.4,286047000.9,N
1593113395.3,286047002.0,N
1593113415.1,286047001.6,N
1593113416.0,286047001.6,N
1593113435.9,286047002.0,N
1593113455.7,286047002.0,N
1593113475.5,286047003.5,N
1593113495.4,286047003.4,N
1593113515.2,286047006.5,N
1593113535.0,286047008.9,N
1593113535.9,286047008.9,N
1593113555.8,286047010.4,N
1593113575.6,286047009.9,N
1593113595.5,286047010.5,N
1593113615.3,286047008.1,N
1593113635.1,286047008.6,N
1593113655.9,286047007.9,N
1593113675.7,286047012.4,N
1593113695.5,286047011.2,N
1593113715.4,286047014.0,N
1593113735.2,286047015.6,N
1593113755.1,286047014.8,N
1593113756.0,286047014.8,N
1593113775.8,286047014.8,N
1593113795.6,286047014.4,N
1593113815.5,286047014.8,N
1593113835.3,286047016.6,Y
1593113855.1,286047011.8,P
1593113875.9,286047014.5,P
1593113895.7,286047014.4,P
1593113915.6,286047013.3,Y
1593113935.4,286047004.0,P
1593113955.2,286047005.6,N
1593113975.1,286047006.8,N
1593113976.0,286047006.8,N
1593113995.8,286047008.6,Y
1593114015.6,286047002.3,P
1593114035.5,286047002.6,N
1593114055.3,286046998.5,N
1593114075.2,286046998.6,N
1593114095.9,286047000.3,N
1593114115.7,286046996.6,N
1593114135.6,286046997.2,N
1593114155.4,286046999.2,N
1593114175.2,286047001.1,N
1593114195.1,286047002.3,N
1593114196.0,286047002.3,N
1593114215.8,286047002.1,N
1593114235.7,286047002.7,N
1593114255.5,286047002.2,N
1593114275.3,286047003.8,N
1593114295.2,286047004.2,N
1593114315.0,286047003.1,N
1593114315.9,286047003.1,N
1593114335.8,286047003.6,N
1593114355.6,286047003.6,N
1593114375.4,286046999.7,N
1593114395.3,286047002.3,N
1593114415.1,286046999.7,N
1593114435.8,286047001.7,N
1593114455.7,286047005.7,N
1593114475.5,286047005.3,N
1593114495.3,286047006.2,N
1593114515.2,286047009.3,Y
1593114535.0,286047008.5,P
1593114535.9,286047008.5,N
1593114555.8,286047010.2,P
1593114575.6,286047010.4,Y
1593114595.4,286046999.9,P
1593114615.3,286046999.8,N
1593114635.1,286047002.2,N
1593114655.9,286046999.9,N
1593114675.7,286047000.2,N
1593114695.5,286047002.8,N
1593114715.4,286047002.8,N
1593114735.2,286047002.0,N
1593114755.0,286047001.6,N
1593114755.9,286047001.6,N
1593114775.8,286047002.5,N
1593114795.6,286047001.8,N
1593114815.5,286047002.4,N
1593114835.3,286047002.6,N
1593114855.1,286047002.8,N
1593114875.9,286047000.7,N
1593114895.7,286047000.0,N
1593114915.5,286047000.4,N
1593114935.4,286047002.3,N
1593114955.2,286047002.0,N
1593114975.1,286047002.0,N
1593114976.0,286047002.0,N
1593114995.8,286047001.5,N
1593115015.6,286047002.7,N
1593115035.5,286047000.4,N
1593115055.3,286047002.8,N
1593115075.1,286047002.0,N
1593115095.9,286047003.9,N
1593115115.7,286047001.8,N
1593115135.6,286047004.1,N
1593115155.4,286047002.2,N
1593115175.2,286047001.7,N
1593115195.1,286047005.4,Y
1593115196.0,286047005.4,P
